APRIZESAT 7 (39416 NORAD) Tracking and Keplerian Element Data

This shows tracking and keplerian element data for the satellite.

Feedback or suggestion? Click here.




ElementValue
Catalog39416
NameAPRIZESAT 7
Epoch Orbit60699
Epoch Day34.85710826
Epoch Year2025
RAAN353.1173
Inclination97.7046
Eccentricity0.0038944
Argument of Perigee63.6343
Mean Anonmoly296.8865
Mean Motion14.89331666
Decay Rate3.25E-05
L11 39416U 13066A 25034.85710826 .00003250 00000+0 34358-3 0 9995
L22 39416 97.7046 353.1173 0038944 63.6343 296.8865 14.89331666606995



Live tracking and technical data element details for APRIZESAT 7 (NORAD 39416). APRIZESAT 7 can be tracked NOW for your location showing map with azimuth and elevation plus other details from your city location.







IsCatalogInMostPopularTable: catalog: 39416, numindb: 581
Update: records affected: 1



GetName: 39416 APRIZESAT 7

Hit Count: updated at: Thu, 15 May 2025 10:38:42 GMT